Weather History for Louisville, KY

Change the Weather History Date:

Monday, March 11, 2013

  Actual Average Record
Temperature  
Mean Temperature 48 °F 46 °F  
Max Temperature 57 °F 56 °F 80 °F (1911)
Min Temperature 38 °F 36 °F 16 °F (1934)
Degree Days  
Heating Degree Days 17 19  
Month to date heating degree days 272 227  
Since 1 July heating degree days 3354 3468  
Cooling Degree Days 0 0  
Month to date cooling degree days 0 0  
Year to date cooling degree days 0 0  
Moisture  
Dew Point 45 °F    
Average Humidity 79    
Maximum Humidity 96    
Minimum Humidity 61    
Precipitation  
Precipitation 1.07 in 0.13 in 3.04 in (1935)
Month to date precipitation 1.64 1.38  
Year to date precipitation 8.66 7.80  
Snow  
Snow 0.00 in 0.10 in 3.00 in (1914)
Month to date snowfall 1.0 0.7  
Since 1 July snowfall 9.1 11.7  
Snow Depth 0.00 in    
Sea Level Pressure  
Sea Level Pressure 29.77 in    
Wind  
Wind Speed 12 mph (SW)    
Max Wind Speed 28 mph    
Max Gust Speed 36 mph    
Visibility 7 miles    
Events Rain    
T = Trace of Precipitation, MM = Missing Value Source: NWS Daily Summary

Daily Weather History Graph

Daily Weather History Graph

Search for Another Location

Airport:

Trip Planner

Search our weather history database for the weather conditions in past years. The results will help you decide how hot, cold, wet, or windy it might be!

Date:

Astronomy

Mar. 11, 2013 Rise Set
Actual Time 7:59 AM EDT 7:46 PM EDT
Civil Twilight 7:33 AM EDT 8:12 PM EDT
Nautical Twilight 7:02 AM EDT 8:43 PM EDT
Astronomical Twilight 6:32 AM EDT 9:14 PM EDT
Moon 7:33 AM EDT (3/11) 7:57 PM EDT (3/11)
Length of Visible Light 12h 39m
Length of Day
11h 46m
Waning Crescent, 0% of the Moon is Illuminated
Mar 11
Waning Crescent
Mar 11
New
Mar 19
First Quarter
Mar 27
Full
Apr 3
Last Quarter

Hourly Weather History & Observations

Time (EDT) Temp. Windchill Dew Point Humidity Pressure Visibility Wind Dir Wind Speed Gust Speed Precip Events Conditions
12:56 AM 54.0 °F - 48.0 °F 80% 29.81 in 10.0 mi ESE 5.8 mph - 0.02 in Rain Light Rain
1:56 AM 53.1 °F - 48.9 °F 86% 29.80 in 8.0 mi SE 4.6 mph - 0.03 in Rain Light Rain
2:56 AM 55.0 °F - 48.0 °F 77% 29.80 in 10.0 mi South 8.1 mph - 0.02 in Rain Light Rain
3:56 AM 52.0 °F - 48.9 °F 89% 29.79 in 4.0 mi Calm Calm - 0.05 in Rain Rain
4:56 AM 55.0 °F - 52.0 °F 89% 29.77 in 4.0 mi South 6.9 mph - 0.18 in Rain Rain
5:56 AM 55.9 °F - 54.0 °F 93% 29.76 in 6.0 mi South 12.7 mph - 0.12 in Rain Light Rain
6:35 AM 55.4 °F - 53.6 °F 94% 29.76 in 4.0 mi South 9.2 mph - 0.15 in Rain Rain
6:56 AM 55.4 °F - 53.6 °F 94% 29.77 in 5.0 mi SSW 8.1 mph - N/A Rain Rain
7:56 AM 55.9 °F - 52.0 °F 87% 29.76 in 7.0 mi South 13.8 mph - 0.14 in Rain Light Rain
8:54 AM 55.4 °F - 51.8 °F 88% 29.74 in 9.0 mi South 12.7 mph 32.2 mph 0.10 in Rain Light Rain
8:56 AM 55.0 °F - 52.0 °F 89% 29.73 in 9.0 mi SSW 11.5 mph 32.2 mph 0.10 in Rain Light Rain
9:08 AM 55.4 °F - 51.8 °F 88% 29.74 in 10.0 mi SSW 13.8 mph 18.4 mph 0.00 in Rain Light Rain
9:38 AM 55.4 °F - 51.8 °F 88% 29.72 in 10.0 mi South 11.5 mph - 0.00 in   Overcast
9:56 AM 55.9 °F - 51.1 °F 84% 29.72 in 10.0 mi SSW 12.7 mph 19.6 mph 0.00 in   Overcast
10:26 AM 55.4 °F - 51.8 °F 88% 29.71 in 2.0 mi South 12.7 mph - 0.00 in Rain Rain
10:35 AM 55.4 °F - 51.8 °F 88% 29.71 in 2.0 mi South 13.8 mph 21.9 mph 0.02 in Rain Rain
10:56 AM 54.0 °F - 52.0 °F 93% 29.70 in 2.5 mi SW 6.9 mph - 0.05 in Rain Rain
11:01 AM 53.6 °F - 51.8 °F 94% 29.71 in 2.0 mi WSW 10.4 mph - 0.01 in Rain Rain
11:28 AM 51.8 °F - 50.0 °F 94% 29.69 in 3.0 mi SW 12.7 mph - 0.05 in Rain Light Rain
11:34 AM 51.8 °F - 50.0 °F 94% 29.71 in 6.0 mi SW 15.0 mph 21.9 mph 0.06 in Rain Light Rain
11:56 AM 52.0 °F - 50.0 °F 93% 29.70 in 8.0 mi SW 13.8 mph - 0.10 in Rain Light Rain
12:06 PM 51.8 °F - 50.0 °F 94% 29.70 in 5.0 mi SW 13.8 mph - 0.01 in Rain Light Rain
12:27 PM 50.0 °F - 46.4 °F 87% 29.73 in 2.0 mi WSW 18.4 mph 35.7 mph 0.03 in Rain Rain
12:30 PM 50.0 °F - 46.4 °F 87% 29.73 in 1.8 mi WSW 17.3 mph 31.1 mph 0.04 in Rain Rain
12:41 PM 48.2 °F - 46.4 °F 93% 29.72 in 2.5 mi WSW 20.7 mph 28.8 mph 0.06 in Rain Light Rain
12:43 PM 48.2 °F - 46.4 °F 93% 29.73 in 3.0 mi WSW 19.6 mph 28.8 mph 0.06 in Rain Light Rain
12:56 PM 48.9 °F - 46.0 °F 90% 29.73 in 6.0 mi WSW 16.1 mph 25.3 mph 0.07 in Rain Light Rain
1:07 PM 48.2 °F - 46.4 °F 93% 29.72 in 6.0 mi WSW 18.4 mph 25.3 mph 0.01 in Rain Light Rain
1:15 PM 48.2 °F - 44.6 °F 87% 29.73 in 9.0 mi WSW 16.1 mph 25.3 mph 0.01 in Rain Light Rain
1:56 PM 46.9 °F - 43.0 °F 86% 29.73 in 6.0 mi WSW 19.6 mph 25.3 mph 0.01 in Rain Light Rain
2:28 PM 46.4 °F 39.5 °F 42.8 °F 87% 29.73 in 10.0 mi WSW 17.3 mph - 0.00 in   Overcast
2:56 PM 46.9 °F - 39.9 °F 77% 29.74 in 10.0 mi SW 11.5 mph 21.9 mph 0.00 in   Overcast
3:56 PM 50.0 °F - 37.9 °F 63% 29.72 in 10.0 mi WSW 19.6 mph 29.9 mph N/A   Mostly Cloudy
4:56 PM 46.9 °F - 37.0 °F 68% 29.75 in 10.0 mi WSW 21.9 mph 33.4 mph N/A   Overcast
5:52 PM 44.6 °F 36.6 °F 35.6 °F 71% 29.79 in 10.0 mi West 19.6 mph 28.8 mph 0.00 in Rain Light Rain
5:56 PM 43.0 °F 35.1 °F 35.1 °F 74% 29.79 in 10.0 mi WSW 17.3 mph 28.8 mph 0.00 in Rain Light Rain
6:38 PM 44.6 °F 38.4 °F 33.8 °F 66% 29.80 in 10.0 mi WSW 12.7 mph - 0.00 in   Overcast
6:56 PM 43.0 °F 35.4 °F 34.0 °F 71% 29.82 in 10.0 mi WSW 16.1 mph - 0.00 in   Overcast
7:17 PM 41.0 °F 32.8 °F 35.6 °F 81% 29.84 in 10.0 mi West 16.1 mph - N/A   Overcast
7:56 PM 41.0 °F 34.3 °F 35.1 °F 79% 29.86 in 10.0 mi West 11.5 mph - 0.00 in   Overcast
8:56 PM 41.0 °F 35.2 °F 34.0 °F 76% 29.88 in 10.0 mi WSW 9.2 mph - N/A   Overcast
9:30 PM 41.0 °F 33.5 °F 33.8 °F 76% 29.90 in 10.0 mi West 13.8 mph - N/A   Overcast
9:56 PM 39.9 °F 32.1 °F 33.1 °F 77% 29.91 in 10.0 mi West 13.8 mph - N/A   Overcast
10:56 PM 39.0 °F 32.3 °F 33.1 °F 79% 29.93 in 10.0 mi West 10.4 mph - N/A   Overcast
11:08 PM 39.2 °F 33.0 °F 33.8 °F 81% 29.93 in 10.0 mi West 9.2 mph - N/A   Overcast
11:56 PM 39.0 °F 30.6 °F 30.9 °F 73% 29.94 in 10.0 mi West 15.0 mph - N/A   Overcast